Location: Althorst
(53.6379°N, 10.7715°E)
Time: 23:54:34
(UTC+00:00)

NOSS 3-4 (A) - Pass Details

Date: 10 December 2019
Orbit: 904 x 1309 km, 63.4° (Epoch: 19 January)

Event Time Altitude Azimuth Distance (km) Brightness Sun altitude
Rises 16:11:39 0° 227° (SW) 3,532 8.0 -10.2°
Reaches altitude 10° 16:14:06 10° 228° (SW) 2,611 7.1 -10.5°
Maximum altitude 16:20:10 87° 316° (NW) 968 3.5 -11.3°
Enters shadow 16:25:58 14° 48° (NE) 2,533 5.1 -12.1°
